Location: Ravensburg
(48.5621°N, 13.4088°E)
Time: 23:49:20
(UTC+01:00)

N. Korean satellite - Visible Passes

Search period start: 22 February 2018 00:00
Search period end: 04 March 2018 00:00
Orbit: 459 x 514 km, 97.2° (Epoch: 21 February)

Date Brightness Start Highest point End Pass type
(mag) Time Alt. Az. Time Alt. Az. Time Alt. Az.
22 Feb 10.0 05:55:53 10° NE 05:58:28 18° E 06:01:03 10° SE visible
22 Feb 7.4 18:08:17 10° S 18:11:41 55° W 18:15:10 10° NNW visible
24 Feb 9.9 18:55:39 10° SW 18:57:56 16° W 19:00:14 10° NW visible
25 Feb 9.0 06:17:33 10° NNE 06:20:53 31° E 06:24:13 10° SSE visible
25 Feb 8.8 18:30:55 10° SSW 18:34:00 29° W 18:37:09 10° NNW visible
26 Feb 10.1 05:54:24 10° NE 05:56:58 18° E 05:59:32 10° SE visible
28 Feb 9.9 18:53:59 10° SW 18:56:22 17° W 18:58:47 10° NW visible
01 Mar 9.1 06:16:01 10° NNE 06:19:20 30° E 06:22:40 10° SSE visible
01 Mar 8.8 18:29:17 10° SSW 18:32:25 31° W 18:35:39 10° NNW visible
02 Mar 10.1 05:52:52 10° NE 05:55:25 17° E 05:57:57 10° SE visible
